Other Surface Observations
Issued by NWS

Home | Current Version | Previous Version | Text Only | Print | Product List | Glossary On
Versions: 1 2 3 4 5 6 7 8 9 10 11 12 13 14 15 16 17 18 19 20 21 22 23 24 25 26 27 28 29 30 31 32 33 34 35 36 37 38 39 40 41 42 43 44 45 46 47 48 49 50
000
SXUS52 KTAE 301819
OSOTAE
OSOTAE
North Florida/South Alabama/Southwest Georgia Weather Roundup
National Weather Service Tallahassee Florida
200 PM EDT SAT JUL 30 2016

Note: "fair" indicates few or no clouds below 12,000 feet with no
significant weather and/or obstructions to visibility.

!FLZ017-115-028-034-025-301900
...North Florida...

CITY           SKY/WX    TMP DP  RH WIND       PRES   REMARKS
TALLAHASSEE    TSTM      80  75  84 SW15      30.06R
APALACHICOLA   CLOUDY    81  77  88 CALM      30.07F
PERRY          PTSUNNY   94  71  47 W6        30.04F HX 101
CROSS CITY       N/A     94  71  47 VRB3      30.05F HX 101
JACKSONVILLE   PTSUNNY   92  72  51 E3        30.03F THUNDER HX  99
$$

!FLZ112-006-005-002-011-301900
...Florida Panhandle...

CITY           SKY/WX    TMP DP  RH WIND       PRES   REMARKS
MARIANNA       MOSUNNY   93  74  53 NW9       30.03F HX 103
BONIFAY        FAIR      91  73  55 VRB3      30.04F HX  99
PANAMA CITY NW FAIR      86  76  71 CALM      30.04F HX  96
TYNDALL AFB    MOSUNNY   89  76  64 N9        30.06F HX 100
TYND DRONE APT NOT AVBL
DE FUNIAK SPR  FAIR      91  70  49 N5        30.05F HX  96
EGLIN AFB      LGT RAIN  87  78  74 S8        30.04F HX 100
DESTIN         MOSUNNY   93  79  63 SW6       30.04F HX 110
HURLBURT       HVY RAIN  82  75  80 SW16G26   30.04S
CRESTVIEW      MOSUNNY   93  72  50 SW7       30.05F HX 101
PENSACOLA      CLOUDY    84  75  74 S18       30.05S THUNDER HX  92
$$

!ALZ063-066-301900
...South Alabama...

CITY           SKY/WX    TMP DP  RH WIND       PRES   REMARKS
DOTHAN         MOSUNNY   93  70  46 W5        30.07F HX  99
OZARK CAIRNS   MOSUNNY   90  75  61 VRB6      30.04F HX 100
FT RUCKER HELI CLOUDY    84  73  69 N10       30.03F THUNDER HX  90
RUCKER HELI 3  FAIR      87  74  64 CALM      30.06F HX  95
RUCKER HELI 2  TSTM      83  75  77 W8G17     30.03F HX  90
FLORALA APT    SUNNY     90  73  57 VRB3      30.05F HX  98
ANDALUSIA      MOSUNNY   96  71  44 W8        30.03F HX 103
TROY           PTSUNNY   91  72  53 CALM      30.04F HX  98
EUFALA         FAIR      94  74  52 VRB7      30.02F HX 104
MOBILE         MOSUNNY   90  71  53 NW5       30.05F HX  96
$$

!GAZ120>161-301900
...Southwest and South Central Georgia...

CITY           SKY/WX    TMP DP  RH WIND       PRES   REMARKS
THOMASVILLE      N/A     93  75  55 NW5       30.05F HX 104
BAINBRIDGE     PTSUNNY   91  75  59 NW9       30.04F HX 102
MOODY AFB      PTSUNNY   93  71  47 W9        30.04F HX 100
VALDOSTA       MOSUNNY   93  72  50 S6        30.04F HX 101
MOULTRIE       SUNNY     91  70  49 W6        30.05F HX  97
BLAKELY        SUNNY     95  72  46 CALM      30.03F HX 103
ALBANY           N/A     94  68  42 SW6       30.04F HX  98
TIFTON         FAIR      93  69  45 SW8       30.03F HX  98
FITZGERALD     FAIR      97  75  49 W6        30.05F HX 110
CORDELE        MOCLDY    93  74  53 NW12      30.04F HX 102
AMERICUS       FAIR      88  68  51 S6        30.05F HX  91
HOMERVILLE     PTSUNNY   97  70  41 NW6       30.03F HX 103
$$

!GMZ750-755-770-775-301900
...Coastal and Buoy Obs...

STATION/POSITION TIME  TEMP    WIND        PRES    VSBY  WAVE
                       AIR SEA DIR/SP/G                  HT/PER
                 (UTC) (F)     (DEG/KT/KT) (MB)    (MI)  (FT/S)
KEATON BEACH     1800   87     250/  7/  8 1017.3F
CEDAR KEY        1800   84      50/  2/  2 1018.2F
C TOWER          1800   85     280/  6/  7 1018.9R
APALACHICOLA BUO 1750   87 90   CALM  /  2 1018.4F         1
PANAMA CITY BUOY 1750   85 88  280/  8/ 10 1018.5S         1/ 4
MOBILE BUOY      1800   86 88  250/  6/  8 1017.6F
ORANGE BCH AL BU 1750   85 88  320/  4/  6 1017.9F         1/ 3
$$




USA.gov is the U.S. government's official web portal to all federal, state and local government web resources and services.